Powrót do katalogu

RCM 1

AktywnyNaukaSSO
NORAD 44322·PAYLOAD·🇨🇦 Canada

Wystrzelony Jun 12, 2019 z Vandenberg Space Force Base

Loading…

Następne Przeloty (najbliższe 24 godziny)

TLE

ŚwieżeSource: Space-Track

Epoka: Sep 14, 2026, 15:27 UTC

1 44322U 19033A   26257.64427723  .00000769  00000-0  80200-4 0  9994
2 44322  97.7602 263.8268 0001498  90.0776 336.7251 14.92591982395424

Śledź RCM 1 w czasie rzeczywistym z AllMySat

Download on the App Store